Home   Weather   Barcelona   Past weeks

Flag for Spain Past Weather in Barcelona, Barcelona, Spain — Yesterday and Last 2 Weeks

Now
34 °F

Passing clouds.


Feels Like: 26 °F
Forecast: 28 / 46 °F
Wind: 9 mph from Northwest

Location: Barcelona Airport

Current Time: Jan 18, 2017 at 12:36:17 am

Latest Report: Jan 18, 2017 at 12:00 am


Visibility: N/A

Pressure: 30.09 "Hg

Humidity: 60%

Dew Point: 21 °F

Location of BarcelonaLocation

Past Weather in Barcelona — Graph

°F

Barcelona Temperature Yesterday

Maximum temperature yesterday: 48 °F (at 12:00 am)
Minimum temperature yesterday: 36 °F (at 10:30 pm)
Average temperature yesterday: 42 °F

High & Low Weather Summary for the Past Weeks

 TemperatureHumidityPressure
High61 °F (Jan 8, 3:30 pm)94% (Jan 13, 12:30 am)30.45 "Hg (Jan 13, 12:30 am)
Low36 °F (Jan 6, 5:00 am)18% (Jan 17, 11:30 am)29.80 "Hg (Jan 10, 2:30 pm)
Average46 °F62%30.15 "Hg
* Reported Jan 2 11:00 pm — Jan 17 11:00 pm, Barcelona, Weather by CustomWeather, © 2017

Note: Actual official high and low records may vary slightly from our data, if they occured in-between our weather recording intervals... More about our weather records

Advertising

Barcelona Weather History for the Previous 24 Hours

Scroll right to see more
 ConditionsComfort  
Time TempWeatherWind HumidityBarometerVisibility
11:00 pm
Tue, Jan 17
36 °FPassing clouds.7 mph56%30.09 "HgN/A
10:30 pm36 °FPassing clouds.5 mph56%30.09 "HgN/A
10:00 pm37 °FPassing clouds.5 mph52%30.07 "HgN/A
9:30 pm37 °FPassing clouds.5 mph52%30.07 "HgN/A
9:00 pm37 °FPassing clouds.1 mph48%30.07 "HgN/A
8:30 pm37 °FPassing clouds.3 mph52%30.07 "HgN/A
8:00 pm39 °FPassing clouds.6 mph48%30.07 "HgN/A
7:30 pm43 °FPassing clouds.5 mph42%30.04 "HgN/A
7:00 pm43 °FPassing clouds.3 mph42%30.04 "HgN/A
6:30 pm45 °FPassing clouds.1 mph39%30.04 "HgN/A
6:00 pm45 °FPassing clouds.3 mph39%30.04 "HgN/A
5:30 pm45 °FPassing clouds.3 mph34%30.04 "HgN/A
5:00 pm45 °FPassing clouds.6 mph34%30.01 "HgN/A
4:30 pm46 °FPassing clouds.6 mph29%30.01 "HgN/A
4:00 pm45 °FPassing clouds.6 mph29%30.01 "HgN/A
3:30 pm45 °FPassing clouds.6 mph29%30.01 "HgN/A
3:00 pm45 °FPassing clouds.6 mph31%30.01 "HgN/A
2:30 pm45 °FPassing clouds.3 mph31%30.01 "HgN/A
2:00 pm45 °FPassing clouds.9 mph29%30.01 "HgN/A
1:30 pm45 °FPassing clouds.9 mph29%30.01 "HgN/A
1:00 pm45 °FPassing clouds.12 mph27%30.01 "HgN/A
12:30 pm45 °FPassing clouds.13 mph27%30.04 "HgN/A
12:00 pm45 °FPassing clouds.9 mph18%30.04 "HgN/A
11:30 am45 °FPassing clouds.8 mph18%30.04 "HgN/A
11:00 am43 °FPassing clouds.9 mph19%30.04 "HgN/A
10:30 am43 °FPassing clouds.9 mph19%30.04 "HgN/A
10:00 am43 °FPassing clouds.8 mph21%30.01 "HgN/A
9:30 am41 °FPassing clouds.15 mph19%30.01 "HgN/A
9:00 am41 °FPassing clouds.16 mph19%30.01 "HgN/A
8:30 am41 °FPassing clouds.14 mph19%30.01 "HgN/A
8:00 am41 °FPassing clouds.25 mph19%29.98 "HgN/A
7:30 am41 °FPassing clouds.22 mph19%29.98 "HgN/A
7:00 am41 °FPassing clouds.23 mph20%29.98 "HgN/A
6:30 am41 °FPassing clouds.14 mph20%29.98 "HgN/A
6:00 am41 °FPassing clouds.16 mph20%29.98 "HgN/A
5:30 am41 °FPassing clouds.12 mph24%29.98 "HgN/A
5:00 am39 °FPassing clouds.3 mph45%29.95 "HgN/A
4:30 am41 °FPassing clouds.8 mph45%29.95 "HgN/A
4:00 am37 °FPassing clouds.6 mph70%29.95 "HgN/A
3:30 am37 °FPassing clouds.7 mph70%29.95 "HgN/A
2:30 am39 °FPassing clouds.6 mph70%29.92 "HgN/A
2:00 am41 °FPassing clouds.7 mph70%29.92 "HgN/A
1:30 am41 °FPassing clouds.5 mph81%29.92 "HgN/A
1:00 am43 °FPassing clouds.5 mph76%29.92 "HgN/A
12:30 am45 °FPassing clouds.12 mph71%29.92 "HgN/A
12:00 am48 °FPassing clouds.3 mph71%29.92 "HgN/A
Weather by CustomWeather, © 2017

See weather overviewHow to use our weather pages